Preview of NWS' New Version of Forecast
This preview is not operational and should not be used for support decisions.
Latest weather observations around

New Orleans, New Orleans Lakefront Airport (KNEW)

Using English Units (Switch to International System of Units)
Date/ Time (CDT) Wind (mph) Vis. (mi) Weather Sky Cond. Temp (°F) Rel. Humidity Wind Chill (°F) Heat Index (°F) Pressure Precip. (in)
Air Dwpt 6 hour Altimeter (inHg) Sea level (inHg) 1 hr 3 hr 6 hr
Max Min
Aug 25 12:53 S 9 10 Cloudy BKN050 OVC085 84 72     67%   90 29.96 29.94     0
Aug 25 11:53 SSW 9 10 Mostly Cloudy FEW070 BKN090 84 73     70%   90 29.97 29.95      
Aug 25 10:53 SSW 8 10 Partly Cloudy SCT100 84 74     72%   91 29.96 29.94      
Aug 25 09:53 SE 7 10 Partly Cloudy FEW075 SCT110 82 75     79%   89 29.97 29.95 0 0  
Aug 25 08:53 E 6 9 Light Rain SCT100 BKN120 79 75     88%   83 29.95 29.93 0    
Aug 25 07:53 SE 8 10 Mostly Clear FEW080 FEW120 78 73     85%   80 29.95 29.93      
Aug 25 06:53 S 8 10 Clear CLR 78 73     85%   80 29.94 29.92      
Aug 25 05:53 WSW 7 10 Clear CLR 80 73     79%   84 29.93 29.91      
Aug 25 04:53 E 3 10 Mostly Clear FEW090 81 77     88%   88 29.92 29.9      
Aug 25 03:53 ESE 5 10 Mostly Clear FEW110 80 76     87%   85 29.94 29.91      
Aug 25 02:53 ESE 5 10 Clear CLR 81 76     85%   87 29.94 29.92      
Aug 25 01:53 ESE 3 10 Cloudy OVC100 81 76     85%   87 29.95 29.93      
Aug 25 00:53 ESE 5 10 Cloudy OVC110 81 75     82%   87 29.96 29.94      
Aug 24 23:53 E 5 10 Mostly Cloudy BKN120 82 74     77%   88 29.97 29.95      
Aug 24 22:53 Calm 10 Mostly Cloudy BKN120 81 73     77%   86 29.98 29.96      
Aug 24 21:53 ESE 3 10 Clear CLR 81 74     79%   86 29.98 29.96      
Aug 24 20:53 Calm 10 Clear CLR 82 72     72%   87 29.96 29.94      
Aug 24 19:53 Calm 10 Clear CLR 81 72     74%   85 29.95 29.93      
Aug 24 18:53 Calm 10 Clear CLR 80 72     76%   84 29.94 29.92     0
Aug 24 17:53 SSW 3 10 Mostly Cloudy BKN090 80 72     76%   84 29.96 29.94 0    
Aug 24 16:53 SSW 8 10 Light Rain BKN080 OVC100 78 73     85%   80 29.97 29.95 0    
Aug 24 15:53 SW 20 10 Light Rain FEW035 BKN065 OVC110 80 75     85%   85 29.97 29.95 0 0  
Aug 24 15:36   10 Light Rain FEW028 BKN038 OVC047 81 74     79%   86 29.97   0    
Aug 24 14:53 ESE 9 10 Mostly Cloudy SCT035 BKN045 88 73     61%   96 29.97 29.95      
Aug 24 13:53 ESE 13 10 Partly Cloudy FEW036 FEW046 SCT055 90 74     59%   99 29.97 29.95      
Aug 24 12:53 ESE 10 10 Partly Cloudy SCT034 90 74     59%   99 29.98 29.96      
Aug 24 11:53 E 9 10 Mostly Clear FEW032 90 74     59%   99 30 29.98      
Aug 24 10:53 SE 7 10 Partly Cloudy SCT020 88 74     63%   97 30.01 29.99      
Aug 24 09:53 ENE 6 10 Partly Cloudy SCT025 86 77     75%   97 30.02 30      
Aug 24 08:53 Calm 10 Partly Cloudy SCT030 85 77     77%   95 30.01 29.99      
Aug 24 07:53 SE 3 10 Partly Cloudy SCT025 83 78     85%   93 30.01 29.99      
Aug 24 06:53 Calm 10 Clear CLR 81 77     88%   88 30.01 29.99      
Aug 24 05:53 Calm 10 Clear CLR 81 77     88%   88 30 29.98      
Aug 24 04:53 SE 5 10 Clear CLR 81 77     88%   88 29.99 29.97      
Aug 24 03:53 Calm 10 Clear CLR 80 76     87%   85 29.98 29.96      
Aug 24 02:53 SE 5 10 Clear CLR 81 76     85%   87 29.97 29.95      
Aug 24 01:53 SSE 5 10 Clear CLR 80 76     87%   85 29.98 29.96      
Aug 24 00:53 SE 6 10 Clear CLR 81 74     79%   86 29.98 29.96      
Aug 23 23:53 SE 6 10 Clear CLR 81 75     82%   87 29.97 29.95      
Aug 23 22:53 SSE 5 10 Clear CLR 82 74     77%   88 29.98 29.96      
Aug 23 21:53 SSE 5 10 Clear CLR 82 73     74%   87 29.99 29.96      
Aug 23 20:53 S 6 10 Clear CLR 83 73     72%   89 29.98 29.96      
Aug 23 19:53 Calm 10 Clear CLR 84 73     70%   90 29.98 29.96      
Aug 23 18:53 WSW 7 10 Clear CLR 85 73     68%   92 29.97 29.95      
Aug 23 17:53 SW 10 10 Clear CLR 86 72     63%   92 29.97 29.95      
Aug 23 16:53 S 8 10 Clear CLR 85 73     68%   92 29.97 29.95      
Aug 23 15:53 S 5 10 Mostly Cloudy BKN030 BKN037 86 73     65%   93 29.96 29.94      
Aug 23 14:53 6 10 Partly Cloudy SCT034 86 73     65%   93 29.98 29.96      
Aug 23 13:53 S 7 10 Clear CLR 84 72     67%   90 30 29.98      
Aug 23 12:53 SSW 3 10 Partly Cloudy SCT025 84 74     72%   91 30.01 29.99     0
Aug 23 11:53 SW 3 10 Partly Cloudy SCT025 82 74     77%   88 30.01 29.99      
Aug 23 10:53 S 8 10 Mostly Clear FEW020 FEW028 81 75     82%   87 30.02 30 0    
Aug 23 10:46 S 7 10 Partly Cloudy FEW020 SCT028 81 75     82%   87 30.02   0    
Aug 23 10:36 SSW 10 5 Light Rain FEW018 BKN026 BKN034 81 74     79%   86 30.02   0    
Aug 23 09:53 SSE 7 10 Clear CLR 85 77     77%   95 30.02 30   0  
Aug 23 08:53 SE 6 10 Clear CLR 81 76     85%   87 30.02 30      
Aug 23 07:53 E 5 10 Mostly Clear FEW110 81 75     82%   87 30.02 30 0    
Aug 23 06:53 E 3 9 Light Rain FEW110 79 76     90%   83 30.01 29.98 0   0
Aug 23 06:02 SE 5 6 Light Rain and Fog/Mist FEW016 FEW024 SCT120 78 75     90%   80 30   0    
Aug 23 05:53 S 9 5 Thunderstorms and Rain and Fog/Mist FEW016 SCT023 BKN120 78 75     90%   80 30 29.98 0    
Aug 23 05:30 SSW 9 10 Thunderstorms SCT019 BKN028 BKN034 80 75     85%   85 30        
Aug 23 04:53 SE 3 10 Clear CLR 80 76     87%   85 29.97 29.95      
Aug 23 03:53 Calm 10 Clear CLR 80 76     87%   85 29.97 29.95      
Aug 23 02:53 SE 5 10 Clear CLR 80 76     87%   85 29.97 29.95      
Aug 23 01:53 ESE 3 10 Clear CLR 81 76     85%   87 29.96 29.94      
Aug 23 00:53 Calm 10 Clear CLR 81 77     88%   88 29.96 29.94     0
Aug 22 23:53 S 5 10 Clear CLR 81 77     88%   88 29.98 29.96      
Aug 22 22:53 SSE 7 10 Clear CLR 81 76     85%   87 29.98 29.96      
Aug 22 21:53 SSW 8 10 Clear CLR 81 77     88%   88 29.99 29.97 0 0  
Aug 22 20:53 S 10 10 Light Rain BKN100 80 75     85%   85 29.98 29.96 0    
Aug 22 19:53 S 16 10 Partly Cloudy FEW060 SCT110 83 75     77%   90 29.98 29.96      
Aug 22 18:53 SSE 11 10 Clear CLR 85 75     72%   93 29.98 29.96     0
Aug 22 17:53 SW 6 10 Mostly Clear FEW070 FEW110 83 74     74%   89 29.96 29.94 0    
Aug 22 17:25 SSW 6 10 Light Rain FEW075 SCT090 BKN110 82 73     74%   87 29.96   0    
Aug 22 16:53 SSE 10 10 Thunderstorms FEW090 83 71     67%   88 29.95 29.93 0    
Aug 22 16:50 SSE 13 10 Thunderstorms CLR 82 72     70%   87 29.95   0    
Aug 22 16:27 SE 16 10 Light Rain CLR 84 73     70%   90 29.95   0    
Aug 22 16:08 ESE 15 10 Clear CLR 88 74     63%   97 29.94        
Aug 22 15:53 ESE 10 10 Mostly Clear FEW041 90 73     58%   98 29.95 29.93      
Aug 22 14:53 ENE 7 10 Clear CLR 91 71     52%   98 29.96 29.94      
Aug 22 13:53 ENE 8 10 Clear CLR 92 69     47%   97 29.98 29.96      
Aug 22 12:53   10 Clear CLR 89 76     65%   100 30 29.98      
May 14 17:53 WNW 3 7 Clear CLR 88 71     57%   94 29.89 29.87      
May 13 08:53 NNE 5 8 Clear CLR 80 71     74%   84 30.12 30.09      
May 12 01:53 SE 7 10 Clear CLR 75 69     82%   76 30.06 30.04      
May 11 21:53 SE 9 10 Clear CLR 78 65     64%   79 30.08 30.06      
Jun 11 19:39 SE 8 8 Cloudy FEW027 BKN033 OVC055 78 77     96%   81 30.02   0    
Jun 11 19:17 SE 10 4 Light Rain and Fog/Mist FEW022 BKN030 OVC041 78 76     93%   80 30.03   0    
Notice The following observation data may not be complete
Jun 11 17:02   10 Light Rain FEW019 BKN027 OVC065          %         0    
Jun 11 14:53 SE 20 1.5 Heavy Rain and Fog/Mist SCT020 SCT032 BKN055 82 78     88%   91 30.02 30 0    
Jun 11 12:17 SE 17 10 Mostly Clear FEW025 87 75     68%   97 30.04        
Jun 09 22:53 S 7 10 Clear CLR 76 68     76%   77 29.94 29.92      
Jun 07 23:53 NNE 15 10 Clear CLR 77 64     64%   77 29.86 29.84      
Jun 07 10:53 N 16 10 Partly Cloudy FEW019 SCT023 80 71     74%   84 29.81 29.79      
Jun 06 07:53 NNE 5 10 Cloudy FEW027 BKN033 OVC044 79 73     82%   82 29.7 29.68      
Jun 06 05:53 NE 3 10 Cloudy OVC023 77 72     84%   78 29.7 29.68      
Jun 06 02:53 Calm 10 Mostly Clear FEW024 75 72     90%   76 29.7 29.68      
Jun 05 18:53 ENE 8 10 Mostly Cloudy BKN017 BKN026 BKN100 79 74     85%   83 29.71 29.69     0